Pellston, MI

10:42 AM EST on February 23, 2017 (GMT -0500)
Pellston Regional Airport Of Emmet County

Weather History for KPLN - December, 2013

Change the Weather History Date:

Friday, December 27, 2013

  Actual Average Record
Temperature  
Mean Temperature 16 °F -  
Max Temperature 37 °F 27 °F 50 °F (2008)
Min Temperature -4 °F 10 °F -18 °F (2004)
Degree Days  
Heating Degree Days 48    
Moisture  
Dew Point 13 °F    
Average Humidity 80    
Maximum Humidity 88    
Minimum Humidity 72    
Precipitation  
Precipitation 0.00 in - - ()
Sea Level Pressure  
Sea Level Pressure 30.09 in    
Wind  
Wind Speed 4 mph (SSW)    
Max Wind Speed 16 mph    
Max Gust Speed 25 mph    
Visibility 10 miles    
Events      
Averages and records for this station are not official NWS values.
T = Trace of Precipitation, MM = Missing Value Source: NWS Daily Summary

Daily Weather History Graph

Daily Weather History Graph

Search for Another Location

Airport or City:

Trip Planner

Search our weather history database for the weather conditions in past years. The results will help you decide how hot, cold, wet, or windy it might be!

Date:

Astronomy

Dec. 27, 2013 Rise Set
Actual Time 8:18 AM EST 5:02 PM EST
Civil Twilight 7:44 AM EST 5:36 PM EST
Nautical Twilight 7:07 AM EST 6:14 PM EST
Astronomical Twilight 6:30 AM EST 6:50 PM EST
Moon 2:39 AM EST (12/27) 1:21 PM EST (12/27)
Length of Visible Light 9h 51m
Length of Day
8h 43m
Waning Crescent, 28% of the Moon is Illuminated
Dec 27
Waning Crescent
Jan 1
New
Jan 7
First Quarter
Jan 15
Full
Jan 24
Last Quarter

Hourly Weather History & Observations

Time (EST) Temp. Windchill Dew Point Humidity Pressure Visibility Wind Dir Wind Speed Gust Speed Precip Events Conditions
12:49 AM 6.8 °F - 3.2 °F 85% 30.17 in 10.0 mi Calm Calm - N/A   Mostly Cloudy
12:54 AM 7.0 °F - 3.0 °F 84% 30.22 in 10.0 mi Calm Calm - N/A   Mostly Cloudy
1:54 AM 1.9 °F - -2.0 °F 83% 30.22 in 10.0 mi Calm Calm - N/A   Mostly Cloudy
2:15 AM -0.0 °F - -2.9 °F 88% 30.18 in 10.0 mi Calm Calm - N/A   Partly Cloudy
2:54 AM -2.0 °F - -6.0 °F 83% 30.23 in 1.2 mi Calm Calm - N/A   Clear
3:07 AM -4.0 °F - -7.1 °F 87% 30.18 in 3.0 mi Calm Calm - N/A   Clear
3:54 AM -2.9 °F - -7.1 °F 82% 30.24 in 10.0 mi Calm Calm - N/A   Scattered Clouds
4:05 AM -4.0 °F - -7.1 °F 87% 30.19 in 10.0 mi Calm Calm - N/A   Mostly Cloudy
4:54 AM 3.0 °F -4.4 °F -2.0 °F 80% 30.24 in 10.0 mi NNE 3.5 mph - N/A   Overcast
5:54 AM 3.0 °F - -0.9 °F 84% 30.25 in 10.0 mi Calm Calm - N/A   Overcast
6:54 AM 3.9 °F - 1.0 °F 88% 30.25 in 10.0 mi Calm Calm - N/A   Overcast
7:54 AM 8.1 °F - 3.9 °F 83% 30.24 in 10.0 mi Calm Calm - N/A   Overcast
8:54 AM 8.1 °F - 5.0 °F 87% 30.24 in 10.0 mi Calm Calm - N/A   Overcast
9:54 AM 12.0 °F - 8.1 °F 84% 30.24 in 10.0 mi Calm Calm - N/A   Overcast
10:54 AM 16.0 °F - 12.9 °F 88% 30.25 in 10.0 mi Calm Calm - N/A   Overcast
11:54 AM 24.1 °F 14.4 °F 17.1 °F 75% 30.20 in 10.0 mi SW 9.2 mph - N/A   Overcast
12:35 PM 25.0 °F 16.3 °F 18.0 °F 75% 30.13 in 10.0 mi SSW 8.1 mph - N/A   Scattered Clouds
12:46 PM 25.0 °F 16.3 °F 18.0 °F 75% 30.12 in 10.0 mi SSW 8.1 mph - N/A   Mostly Cloudy
12:54 PM 25.0 °F 14.8 °F 18.0 °F 75% 30.16 in 10.0 mi SW 10.4 mph - N/A   Mostly Cloudy
1:54 PM 27.0 °F 18.7 °F 19.9 °F 75% 30.12 in 10.0 mi SSW 8.1 mph - N/A   Overcast
2:54 PM 27.0 °F 19.5 °F 21.0 °F 78% 30.11 in 10.0 mi South 6.9 mph - N/A   Overcast
3:54 PM 28.0 °F 20.0 °F 21.9 °F 78% 30.07 in 10.0 mi South 8.1 mph - N/A   Overcast
4:29 PM 28.9 °F 22.8 °F 23.0 °F 78% 30.00 in 10.0 mi South 5.8 mph - N/A   Overcast
4:54 PM 28.9 °F 21.1 °F 23.0 °F 78% 30.01 in 10.0 mi South 8.1 mph 17.3 mph N/A   Overcast
5:11 PM 30.0 °F 21.1 °F 23.0 °F 75% 29.95 in 10.0 mi South 10.4 mph 18.4 mph N/A   Overcast
5:54 PM 30.0 °F 22.4 °F 24.1 °F 79% 29.96 in 10.0 mi South 8.1 mph - N/A   Overcast
6:18 PM 30.9 °F 22.2 °F 25.0 °F 79% 29.91 in 10.0 mi South 10.4 mph 18.4 mph N/A   Overcast
6:54 PM 32.0 °F 22.1 °F 26.1 °F 79% 29.91 in 10.0 mi South 13.8 mph 19.6 mph N/A   Overcast
7:54 PM 34.0 °F 24.6 °F 27.0 °F 75% 29.89 in 10.0 mi SSW 13.8 mph 25.3 mph N/A   Overcast
8:54 PM 35.1 °F 25.2 °F 27.0 °F 72% 29.89 in 10.0 mi SW 16.1 mph 23.0 mph N/A   Overcast
9:51 PM 35.6 °F 27.5 °F 28.4 °F 75% 29.84 in 10.0 mi WSW 11.5 mph 18.4 mph N/A   Mostly Cloudy
9:54 PM 36.0 °F 28.0 °F 28.9 °F 76% 29.87 in 10.0 mi WSW 11.5 mph 18.4 mph N/A   Overcast
10:54 PM 37.9 °F 28.9 °F 30.0 °F 73% 29.87 in 10.0 mi West 16.1 mph 24.2 mph N/A   Overcast
11:54 PM 36.0 °F 27.1 °F 28.0 °F 73% 29.88 in 10.0 mi West 13.8 mph 21.9 mph N/A   Overcast